Location: Quaker Farms
(41.4276°N, 73.1557°W)
Time: 02:08:53
(UTC+00:00)

Transit 2A - Visible Passes

Search period start: 13 June 2021 00:00
Search period end: 23 June 2021 00:00
Orbit: 601 x 957 km, 66.7° (Epoch: 12 June)

Date Brightness Start Highest point End Pass type
(mag) Time Alt. Az. Time Alt. Az. Time Alt. Az.
13 Jun 8.6 06:19:11 10° N 06:22:28 18° NE 06:25:55 10° E visible
13 Jun 5.9 08:01:06 10° NNW 08:06:03 75° WSW 08:11:32 10° SSE visible
14 Jun 8.8 05:45:46 10° NNE 05:48:00 13° NE 05:50:19 10° ENE visible
14 Jun 6.1 07:26:55 10° NNW 07:31:52 76° ENE 07:37:20 10° SE visible
15 Jun 6.7 06:52:50 10° NNW 06:57:39 52° NE 07:02:57 10° SE visible
15 Jun 7.2 08:36:43 10° WNW 08:40:32 21° WSW 08:44:38 10° SSW visible
16 Jun 7.4 06:18:51 10° NNW 06:23:23 36° NE 06:28:20 10° ESE visible
16 Jun 6.7 08:02:02 10° NW 08:06:29 31° WSW 08:11:19 10° S visible
17 Jun 7.9 05:44:56 10° N 05:49:04 26° NE 05:53:30 10° ESE visible
17 Jun 6.2 07:27:34 10° NW 07:32:23 47° WSW 07:37:19 12° S visible
18 Jun 8.3 05:11:11 10° N 05:14:42 19° NE 05:18:24 10° E visible
18 Jun 5.9 06:53:15 10° NW 06:58:14 69° WSW 07:01:55 21° SSE visible
19 Jun 8.6 04:37:39 10° N 04:40:15 14° NE 04:42:56 10° ENE visible
19 Jun 6.0 06:19:03 10° NNW 06:24:04 81° ENE 06:27:06 27° SE visible
19 Jun 7.7 08:04:17 10° WNW 08:06:43 13° WSW 08:07:30 13° WSW visible
20 Jun 8.8 04:05:08 10° NNE 04:05:43 10° NE 04:06:20 10° NE visible
20 Jun 6.5 05:44:57 10° NNW 05:49:51 56° ENE 05:52:39 27° SE visible
20 Jun 7.3 07:28:59 10° WNW 07:32:42 20° WSW 07:33:03 20° WSW visible
21 Jun 7.1 05:10:56 10° NNW 05:15:36 39° NE 05:18:24 23° ESE visible
21 Jun 6.9 06:54:14 10° NW 06:58:39 30° WSW 06:58:50 30° WSW visible
22 Jun 7.6 04:37:00 10° N 04:41:17 28° NE 04:44:20 17° E visible
22 Jun 6.4 06:19:44 10° NW 06:24:34 43° WSW 06:24:46 43° WSW visible
